ENT7551 EPWA-HEGN

Flight info

Callsign ENT7551
Flight time 3h 48m
Altitude 37000
Route EVINA M985 KOTEK DCT KENIN DCT KARIL DCT UPAMA DCT ADORU UL606 EKI UL854 KULAR UT39 TOMBI M855 RASDA A16 CVO L315 SOKOT SOKOT1A
Aircraft B738/M-DFGHIJ1LORVWXY/EB1

Departure

Time 2026-05-04 06:36
Airport Warsaw Chopin Airport (EPWA)

Arrival

Time 2026-05-04 10:25
Airport Hurghada International Airport (HEGN)
Time Latitude Longitude Altitude Speed Heading
2026-05-04 06:05 52.17646 20.96647 338 ft 0 kts 237°
2026-05-04 06:25 52.17649 20.96655 333 ft 4 kts 237°
2026-05-04 06:25 52.17662 20.96686 332 ft 4 kts 242°
2026-05-04 06:26 52.17665 20.96717 333 ft 4 kts 314°
2026-05-04 06:26 52.17648 20.96739 333 ft 2 kts 325°
2026-05-04 06:26 52.17629 20.96766 334 ft 4 kts 302°
2026-05-04 06:26 52.17621 20.96804 334 ft 4 kts 261°
2026-05-04 06:27 52.17625 20.96827 335 ft 0 kts 237°
2026-05-04 06:30 52.17622 20.96819 334 ft 3 kts 237°
2026-05-04 06:30 52.17602 20.96766 335 ft 8 kts 239°
2026-05-04 06:30 52.17568 20.96671 335 ft 11 kts 239°
2026-05-04 06:31 52.17518 20.96553 336 ft 14 kts 229°
2026-05-04 06:31 52.17462 20.96415 337 ft 15 kts 241°
2026-05-04 06:31 52.17509 20.96295 336 ft 14 kts 329°
2026-05-04 06:31 52.17580 20.96198 337 ft 13 kts 290°
2026-05-04 06:32 52.17567 20.96086 334 ft 5 kts 226°
2026-05-04 06:33 52.17405 20.95986 334 ft 13 kts 163°
2026-05-04 06:34 52.17373 20.96012 337 ft 0 kts 152°
2026-05-04 06:34 52.17372 20.96013 337 ft 1 kts 152°
2026-05-04 06:35 52.17283 20.96090 336 ft 43 kts 153°
2026-05-04 06:36 52.10360 20.99715 3431 ft 170 kts 219°
2026-05-04 06:37 52.09402 20.98591 4129 ft 179 kts 217°
2026-05-04 06:37 52.08301 20.97366 4328 ft 202 kts 216°
2026-05-04 06:37 52.07072 20.96015 4512 ft 227 kts 214°
2026-05-04 06:37 52.05682 20.94578 4900 ft 244 kts 212°
2026-05-04 06:38 52.04044 20.93807 5521 ft 255 kts 181°
2026-05-04 06:38 52.02269 20.94300 6257 ft 260 kts 173°
2026-05-04 06:40 51.89136 20.98201 10393 ft 299 kts 173°
2026-05-04 06:40 51.87021 20.98811 10548 ft 319 kts 173°
2026-05-04 06:40 51.84768 20.99460 10694 ft 337 kts 173°
2026-05-04 06:40 51.82396 21.00141 10845 ft 355 kts 173°
2026-05-04 06:41 51.79909 21.00856 11094 ft 368 kts 173°
2026-05-04 06:41 51.77369 21.01588 11595 ft 372 kts 173°
2026-05-04 06:41 51.74821 21.02365 12166 ft 375 kts 169°
2026-05-04 06:41 51.72327 21.03720 12719 ft 381 kts 161°
2026-05-04 06:42 51.69849 21.05297 13269 ft 384 kts 161°
2026-05-04 06:42 51.67354 21.06871 13812 ft 386 kts 161°
2026-05-04 06:42 51.64840 21.08449 14301 ft 389 kts 161°
2026-05-04 06:44 51.46684 21.19648 17580 ft 409 kts 161°
2026-05-04 06:44 51.44011 21.21263 18029 ft 411 kts 161°
2026-05-04 06:44 51.41320 21.22881 18441 ft 414 kts 161°
2026-05-04 06:45 51.38613 21.24499 18808 ft 417 kts 161°
2026-05-04 06:45 51.35884 21.26121 19166 ft 420 kts 161°
2026-05-04 06:45 51.33138 21.27740 19535 ft 422 kts 161°
2026-05-04 06:45 51.30374 21.29360 19893 ft 425 kts 161°
2026-05-04 06:46 51.27621 21.30961 20244 ft 427 kts 161°
2026-05-04 06:46 51.24822 21.32579 20592 ft 429 kts 161°
2026-05-04 06:46 51.21996 21.34202 20931 ft 432 kts 161°
2026-05-04 06:46 51.19161 21.35822 21257 ft 434 kts 161°
2026-05-04 06:48 50.98841 21.47221 23376 ft 450 kts 161°
2026-05-04 06:48 50.95880 21.48855 23662 ft 452 kts 161°
2026-05-04 06:49 50.92905 21.50490 23909 ft 454 kts 161°
2026-05-04 06:50 50.70807 21.55103 25402 ft 465 kts 174°
2026-05-04 06:51 50.67579 21.55636 25592 ft 467 kts 174°
2026-05-04 06:51 50.64347 21.56178 25812 ft 468 kts 174°
2026-05-04 06:51 50.61107 21.56725 26027 ft 469 kts 174°
2026-05-04 06:51 50.57853 21.57273 26228 ft 470 kts 174°
2026-05-04 06:52 50.54588 21.57822 26414 ft 472 kts 174°
2026-05-04 06:52 50.51320 21.58370 26583 ft 473 kts 174°
2026-05-04 06:52 50.48040 21.58919 26751 ft 475 kts 174°
2026-05-04 06:52 50.44744 21.59468 26923 ft 476 kts 174°
2026-05-04 06:53 50.41442 21.60016 27099 ft 478 kts 174°
2026-05-04 06:53 50.38177 21.60558 27258 ft 479 kts 174°
2026-05-04 06:53 50.34860 21.61108 27454 ft 479 kts 174°
2026-05-04 06:53 50.31544 21.61658 27712 ft 479 kts 174°
2026-05-04 06:54 50.28232 21.62205 27989 ft 477 kts 174°
2026-05-04 06:54 50.24931 21.62750 28218 ft 477 kts 174°
2026-05-04 06:54 50.21627 21.63295 28428 ft 478 kts 174°
2026-05-04 06:54 50.18320 21.63841 28658 ft 477 kts 174°
2026-05-04 06:55 50.15016 21.64383 28890 ft 477 kts 174°
2026-05-04 06:55 50.11707 21.64927 29135 ft 477 kts 174°
2026-05-04 06:55 50.08408 21.65468 29349 ft 477 kts 174°
2026-05-04 06:55 50.05110 21.66008 29534 ft 477 kts 174°
2026-05-04 06:56 50.01801 21.66549 29761 ft 477 kts 174°
2026-05-04 06:57 49.78806 21.70289 31065 ft 474 kts 174°
2026-05-04 06:58 49.75519 21.70821 31203 ft 475 kts 174°
2026-05-04 06:58 49.72231 21.71352 31363 ft 475 kts 174°
2026-05-04 06:58 49.68941 21.71883 31511 ft 475 kts 174°
2026-05-04 06:58 49.65658 21.72412 31637 ft 475 kts 174°
2026-05-04 06:59 49.62356 21.72943 31764 ft 476 kts 174°
2026-05-04 06:59 49.59062 21.73473 31916 ft 475 kts 174°
2026-05-04 06:59 49.55772 21.74001 32048 ft 475 kts 174°
2026-05-04 06:59 49.52476 21.74529 32210 ft 475 kts 174°
2026-05-04 07:01 49.29527 21.78186 33244 ft 473 kts 174°
2026-05-04 07:01 49.26255 21.78704 33355 ft 473 kts 174°
2026-05-04 07:02 49.22981 21.79223 33462 ft 473 kts 174°
2026-05-04 07:02 49.19706 21.79741 33593 ft 472 kts 174°
2026-05-04 07:02 49.16434 21.80257 33724 ft 472 kts 174°
2026-05-04 07:02 49.13205 21.80767 33843 ft 472 kts 174°
2026-05-04 07:03 49.09939 21.81281 33965 ft 471 kts 174°
2026-05-04 07:03 49.06679 21.81794 34103 ft 471 kts 174°
2026-05-04 07:03 49.00164 21.82816 34283 ft 471 kts 174°
2026-05-04 07:04 48.93649 21.83837 34490 ft 470 kts 174°
2026-05-04 07:04 48.87152 21.84851 34658 ft 469 kts 174°
2026-05-04 07:05 48.80647 21.85863 34825 ft 469 kts 174°
2026-05-04 07:05 48.74154 21.86872 34984 ft 468 kts 173°
2026-05-04 07:06 48.67670 21.87877 35126 ft 469 kts 173°
2026-05-04 07:06 48.64466 21.88373 35194 ft 468 kts 173°
2026-05-04 07:07 48.57976 21.89374 35341 ft 468 kts 173°
2026-05-04 07:08 48.35416 21.93853 35737 ft 466 kts 158°
2026-05-04 07:09 48.32477 21.95881 35785 ft 464 kts 148°
2026-05-04 07:09 48.27003 22.00991 35892 ft 463 kts 146°
2026-05-04 07:10 48.21533 22.06095 36010 ft 463 kts 147°
2026-05-04 07:12 47.99553 22.26078 36391 ft 462 kts 147°
2026-05-04 07:12 47.94052 22.31043 36478 ft 462 kts 147°
2026-05-04 07:13 47.88574 22.35975 36550 ft 462 kts 147°
2026-05-04 07:13 47.83052 22.40937 36630 ft 462 kts 147°
2026-05-04 07:14 47.71836 22.50243 36735 ft 463 kts 151°
2026-05-04 07:14 47.68962 22.52417 36766 ft 464 kts 151°
2026-05-04 07:15 47.63221 22.56769 36828 ft 463 kts 150°
2026-05-04 07:15 47.57485 22.61159 36877 ft 463 kts 150°
2026-05-04 07:16 47.52724 22.64818 36929 ft 463 kts 150°
2026-05-04 07:16 47.47010 22.69207 37052 ft 461 kts 150°
2026-05-04 07:17 47.41332 22.73556 37168 ft 458 kts 150°
2026-05-04 07:17 47.35667 22.77885 37169 ft 458 kts 150°
2026-05-04 07:18 47.30004 22.82201 37167 ft 458 kts 150°
2026-05-04 07:18 47.24347 22.86501 37168 ft 457 kts 150°
2026-05-04 07:19 47.18723 22.90765 37164 ft 457 kts 150°
2026-05-04 07:19 47.13063 22.95048 37166 ft 457 kts 150°
2026-05-04 07:20 47.07402 22.99320 37159 ft 457 kts 150°
2026-05-04 07:20 47.01747 23.03577 37163 ft 457 kts 150°
2026-05-04 07:22 46.79146 23.20492 37152 ft 456 kts 150°
2026-05-04 07:23 46.73487 23.24702 37152 ft 456 kts 150°
2026-05-04 07:23 46.67820 23.28908 37148 ft 456 kts 150°
2026-05-04 07:24 46.62157 23.33101 37140 ft 456 kts 150°
2026-05-04 07:24 46.56500 23.37280 37148 ft 456 kts 150°
2026-05-04 07:26 46.33861 23.53905 37138 ft 456 kts 150°
2026-05-04 07:27 46.28189 23.58046 37147 ft 456 kts 150°
2026-05-04 07:27 46.22510 23.62182 37141 ft 457 kts 150°
2026-05-04 07:28 46.16832 23.66308 37142 ft 457 kts 150°
2026-05-04 07:28 46.11194 23.70396 37145 ft 456 kts 150°
2026-05-04 07:29 46.05519 23.74500 37147 ft 456 kts 150°
2026-05-04 07:29 45.99841 23.78599 37145 ft 456 kts 150°
2026-05-04 07:30 45.94163 23.82686 37161 ft 456 kts 150°
2026-05-04 07:30 45.88482 23.86767 37152 ft 456 kts 150°
2026-05-04 07:31 45.82799 23.90840 37160 ft 456 kts 150°
2026-05-04 07:33 45.60097 24.07018 37151 ft 457 kts 150°
2026-05-04 07:33 45.54386 24.11064 37143 ft 457 kts 150°
2026-05-04 07:34 45.48685 24.15094 37123 ft 457 kts 150°
2026-05-04 07:34 45.43018 24.19091 37107 ft 457 kts 150°
2026-05-04 07:35 45.37316 24.23104 37093 ft 457 kts 150°
2026-05-04 07:35 45.31627 24.27098 37112 ft 456 kts 150°
2026-05-04 07:36 45.25930 24.31090 37103 ft 456 kts 150°
2026-05-04 07:38 45.03149 24.46960 37088 ft 456 kts 150°
2026-05-04 07:38 44.97484 24.50884 37087 ft 456 kts 150°
2026-05-04 07:39 44.91783 24.54825 37095 ft 455 kts 151°
2026-05-04 07:39 44.86087 24.58754 37095 ft 455 kts 151°
2026-05-04 07:40 44.80393 24.62673 37100 ft 455 kts 151°
2026-05-04 07:40 44.74691 24.66588 37092 ft 455 kts 151°
2026-05-04 07:41 44.69027 24.70469 37093 ft 456 kts 151°
2026-05-04 07:41 44.63332 24.74362 37096 ft 456 kts 151°
2026-05-04 07:42 44.57622 24.78258 37097 ft 455 kts 151°
2026-05-04 07:42 44.51921 24.82138 37104 ft 455 kts 151°
2026-05-04 07:43 44.46217 24.86012 37101 ft 455 kts 151°
2026-05-04 07:43 44.40515 24.89877 37099 ft 455 kts 151°
2026-05-04 07:44 44.34850 24.93707 37105 ft 455 kts 152°
2026-05-04 07:44 44.29156 24.97550 37100 ft 455 kts 152°
2026-05-04 07:45 44.23461 25.01384 37107 ft 454 kts 152°
2026-05-04 07:45 44.17766 25.05210 37104 ft 454 kts 152°
2026-05-04 07:46 44.12067 25.09031 37104 ft 454 kts 152°
2026-05-04 07:46 44.06369 25.12843 37108 ft 454 kts 152°
2026-05-04 07:47 44.00714 25.16618 37111 ft 454 kts 152°
2026-05-04 07:49 43.77942 25.31740 37115 ft 453 kts 152°
2026-05-04 07:49 43.72248 25.35501 37120 ft 453 kts 152°
2026-05-04 07:50 43.66602 25.39224 37110 ft 453 kts 152°
2026-05-04 07:50 43.60919 25.42971 37115 ft 452 kts 152°
2026-05-04 07:51 43.55259 25.46783 37119 ft 452 kts 151°
2026-05-04 07:51 43.49596 25.50616 37114 ft 452 kts 151°
2026-05-04 07:52 43.43945 25.54426 37111 ft 452 kts 152°
2026-05-04 07:52 43.38294 25.58222 37116 ft 452 kts 152°
2026-05-04 07:54 43.15682 25.73319 37124 ft 452 kts 152°
2026-05-04 07:55 43.10019 25.77081 37129 ft 452 kts 152°
2026-05-04 07:55 43.04349 25.80839 37126 ft 453 kts 152°
2026-05-04 07:56 42.98708 25.84571 37117 ft 453 kts 152°
2026-05-04 07:56 42.93033 25.88317 37121 ft 453 kts 152°
2026-05-04 07:57 42.87351 25.92060 37103 ft 454 kts 152°
2026-05-04 07:57 42.81655 25.95805 37097 ft 454 kts 151°
2026-05-04 07:58 42.75967 25.99536 37103 ft 454 kts 152°
2026-05-04 07:58 42.70274 26.03263 37089 ft 454 kts 152°
2026-05-04 07:59 42.64613 26.06962 37101 ft 454 kts 152°
2026-05-04 07:59 42.58908 26.10683 37090 ft 455 kts 152°
2026-05-04 08:00 42.53205 26.14396 37087 ft 455 kts 152°
2026-05-04 08:02 42.30389 26.29167 37095 ft 455 kts 152°
2026-05-04 08:02 42.24657 26.32860 37091 ft 456 kts 152°
2026-05-04 08:03 42.18926 26.36544 37096 ft 456 kts 152°
2026-05-04 08:03 42.13184 26.40228 37088 ft 457 kts 152°
2026-05-04 08:04 42.07440 26.43907 37094 ft 457 kts 152°
2026-05-04 08:04 42.01706 26.47571 37091 ft 458 kts 152°
2026-05-04 08:05 41.96909 26.50631 37085 ft 459 kts 152°
2026-05-04 08:05 41.91130 26.54313 37078 ft 460 kts 152°
2026-05-04 08:06 41.85449 26.58241 37067 ft 457 kts 143°
2026-05-04 08:06 41.80270 26.63195 37068 ft 457 kts 142°
2026-05-04 08:08 41.59540 26.82891 37072 ft 458 kts 143°
2026-05-04 08:11 41.36072 27.04813 37074 ft 458 kts 143°
2026-05-04 08:11 41.28222 27.12104 37077 ft 458 kts 143°
2026-05-04 08:12 41.22988 27.16955 37072 ft 459 kts 143°
2026-05-04 08:12 41.17779 27.21770 37070 ft 459 kts 143°
2026-05-04 08:13 41.12529 27.26609 37065 ft 459 kts 143°
2026-05-04 08:13 41.07287 27.31434 37064 ft 459 kts 143°
2026-05-04 08:14 41.02038 27.36259 37062 ft 459 kts 143°
2026-05-04 08:16 40.79089 27.51066 37058 ft 462 kts 156°
2026-05-04 08:16 40.73142 27.54183 37059 ft 462 kts 156°
2026-05-04 08:17 40.67163 27.57328 37058 ft 462 kts 156°
2026-05-04 08:17 40.61188 27.60461 37064 ft 463 kts 156°
2026-05-04 08:19 40.37274 27.73033 37055 ft 464 kts 156°
2026-05-04 08:20 40.31277 27.76189 37057 ft 464 kts 156°
2026-05-04 08:20 40.25284 27.79336 37060 ft 464 kts 156°
2026-05-04 08:21 40.19276 27.82484 37055 ft 465 kts 156°
2026-05-04 08:21 40.13302 27.85608 37047 ft 465 kts 156°
2026-05-04 08:22 40.07287 27.88747 37048 ft 465 kts 156°
2026-05-04 08:24 39.83186 28.01243 37059 ft 468 kts 157°
2026-05-04 08:24 39.77105 28.04270 37063 ft 468 kts 158°
2026-05-04 08:25 39.71011 28.07294 37069 ft 468 kts 158°
2026-05-04 08:25 39.64924 28.10320 37071 ft 469 kts 158°
2026-05-04 08:27 39.40559 28.22401 37029 ft 468 kts 158°
2026-05-04 08:28 39.34473 28.25406 37016 ft 467 kts 158°
2026-05-04 08:28 39.28395 28.28399 37021 ft 468 kts 158°
2026-05-04 08:29 39.22308 28.31373 37015 ft 468 kts 158°
2026-05-04 08:31 38.97928 28.43339 36992 ft 470 kts 158°
2026-05-04 08:33 38.73578 28.55606 36981 ft 471 kts 158°
2026-05-04 08:35 38.52885 28.67869 36976 ft 470 kts 144°
2026-05-04 08:35 38.50228 28.70314 36966 ft 470 kts 144°
2026-05-04 08:35 38.44899 28.75183 36968 ft 471 kts 144°
2026-05-04 08:37 38.26210 28.91866 36954 ft 473 kts 145°
2026-05-04 08:38 38.20805 28.96663 36949 ft 473 kts 145°
2026-05-04 08:38 38.15392 29.01460 36949 ft 474 kts 145°
2026-05-04 08:40 37.93730 29.20567 36941 ft 476 kts 145°
2026-05-04 08:41 37.88284 29.25350 36940 ft 476 kts 145°
2026-05-04 08:41 37.82835 29.30126 36938 ft 477 kts 145°
2026-05-04 08:42 37.77369 29.34906 36931 ft 478 kts 145°
2026-05-04 08:42 37.71898 29.39685 36939 ft 478 kts 146°
2026-05-04 08:43 37.66420 29.44463 36945 ft 479 kts 146°
2026-05-04 08:43 37.60969 29.49209 36936 ft 479 kts 146°
2026-05-04 08:44 37.55474 29.53984 36920 ft 479 kts 146°
2026-05-04 08:46 37.33484 29.73012 36907 ft 481 kts 146°
2026-05-04 08:46 37.27961 29.77771 36916 ft 481 kts 146°
2026-05-04 08:47 37.22435 29.82528 36918 ft 482 kts 146°
2026-05-04 08:47 37.16900 29.87286 36916 ft 483 kts 146°
2026-05-04 08:48 37.11345 29.92051 36910 ft 483 kts 146°
2026-05-04 08:48 37.05797 29.96804 36912 ft 484 kts 147°
2026-05-04 08:49 37.00240 30.01560 36902 ft 484 kts 147°
2026-05-04 08:50 36.80747 30.18176 36893 ft 485 kts 147°
2026-05-04 08:51 36.75164 30.22903 36882 ft 485 kts 147°
2026-05-04 08:51 36.69568 30.27635 36872 ft 486 kts 147°
2026-05-04 08:52 36.63975 30.32357 36880 ft 485 kts 147°
2026-05-04 08:52 36.58416 30.37044 36877 ft 486 kts 148°
2026-05-04 08:54 36.36916 30.55091 36856 ft 487 kts 148°
2026-05-04 08:55 36.30369 30.60562 36859 ft 487 kts 148°
2026-05-04 08:55 36.25653 30.64497 36862 ft 488 kts 148°
2026-05-04 08:57 36.05820 30.80591 36860 ft 484 kts 160°
2026-05-04 09:01 35.60146 30.85082 36882 ft 471 kts 182°
2026-05-04 09:01 35.53603 30.85316 36884 ft 470 kts 184°
2026-05-04 09:02 35.47101 30.85502 36876 ft 470 kts 184°
2026-05-04 09:02 35.40565 30.85709 36880 ft 470 kts 184°
2026-05-04 09:03 35.34035 30.85928 36886 ft 470 kts 184°
2026-05-04 09:03 35.27502 30.86148 36879 ft 469 kts 184°
2026-05-04 09:04 35.20968 30.86367 36891 ft 469 kts 184°
2026-05-04 09:04 35.14441 30.86585 36886 ft 469 kts 184°
2026-05-04 09:05 35.07915 30.86802 36888 ft 469 kts 184°
2026-05-04 09:05 35.01384 30.87019 36892 ft 469 kts 185°
2026-05-04 09:06 34.94908 30.87234 36896 ft 469 kts 185°
2026-05-04 09:08 34.68829 30.88097 36915 ft 469 kts 185°
2026-05-04 09:08 34.62304 30.88312 36917 ft 469 kts 185°
2026-05-04 09:09 34.55780 30.88592 36920 ft 469 kts 185°
2026-05-04 09:09 34.49244 30.88934 36927 ft 469 kts 185°
2026-05-04 09:10 34.42717 30.89266 36936 ft 469 kts 185°
2026-05-04 09:10 34.36189 30.89587 36935 ft 469 kts 185°
2026-05-04 09:11 34.29711 30.89903 36940 ft 469 kts 185°
2026-05-04 09:11 34.23192 30.90223 36945 ft 469 kts 185°
2026-05-04 09:12 34.16676 30.90582 36948 ft 468 kts 185°
2026-05-04 09:14 33.90729 30.91988 36957 ft 464 kts 186°
2026-05-04 09:14 33.84278 30.92221 36965 ft 463 kts 187°
2026-05-04 09:15 33.77833 30.92449 36965 ft 462 kts 187°
2026-05-04 09:15 33.71408 30.92687 36972 ft 462 kts 187°
2026-05-04 09:17 33.42586 30.93777 36994 ft 459 kts 187°
2026-05-04 09:18 33.36244 30.94016 37000 ft 459 kts 187°
2026-05-04 09:18 33.29849 30.94256 37002 ft 459 kts 188°
2026-05-04 09:19 33.23471 30.94495 37008 ft 458 kts 188°
2026-05-04 09:19 33.17094 30.94735 37012 ft 458 kts 188°
2026-05-04 09:20 33.10722 30.94974 37019 ft 458 kts 188°
2026-05-04 09:20 33.04317 30.95508 37019 ft 463 kts 185°
2026-05-04 09:21 32.97909 30.96287 37026 ft 463 kts 184°
2026-05-04 09:21 32.91542 30.97055 37036 ft 462 kts 185°
2026-05-04 09:22 32.85103 30.97792 37024 ft 461 kts 185°
2026-05-04 09:22 32.78754 30.98501 37025 ft 461 kts 185°
2026-05-04 09:23 32.72371 30.99210 37032 ft 460 kts 185°
2026-05-04 09:23 32.65994 30.99918 37035 ft 460 kts 186°
2026-05-04 09:25 32.40829 31.02708 37059 ft 459 kts 186°
2026-05-04 09:26 32.34469 31.03411 37057 ft 458 kts 186°
2026-05-04 09:26 32.28119 31.04111 37059 ft 458 kts 186°
2026-05-04 09:27 32.21773 31.04810 37059 ft 457 kts 186°
2026-05-04 09:27 32.15474 31.05503 37061 ft 457 kts 186°
2026-05-04 09:28 32.09137 31.06200 37078 ft 457 kts 186°
2026-05-04 09:28 32.02803 31.06894 37075 ft 456 kts 186°
2026-05-04 09:29 31.96510 31.07575 37076 ft 456 kts 186°
2026-05-04 09:29 31.90150 31.08258 37076 ft 456 kts 186°
2026-05-04 09:30 31.83864 31.08933 37082 ft 456 kts 186°
2026-05-04 09:30 31.77544 31.09611 37081 ft 456 kts 186°
2026-05-04 09:31 31.71224 31.10289 37073 ft 456 kts 186°
2026-05-04 09:31 31.64906 31.10966 37091 ft 456 kts 186°
2026-05-04 09:32 31.58585 31.11641 37089 ft 456 kts 186°
2026-05-04 09:34 31.33252 31.15938 37082 ft 462 kts 182°
2026-05-04 09:34 31.26911 31.17121 37083 ft 461 kts 182°
2026-05-04 09:35 31.20573 31.18303 37084 ft 461 kts 182°
2026-05-04 09:35 31.14272 31.19477 37084 ft 461 kts 182°
2026-05-04 09:37 30.88959 31.24179 37079 ft 459 kts 182°
2026-05-04 09:38 30.82656 31.25346 37091 ft 458 kts 182°
2026-05-04 09:38 30.76360 31.26510 37085 ft 458 kts 182°
2026-05-04 09:39 30.70110 31.27664 37084 ft 457 kts 182°
2026-05-04 09:39 30.63825 31.28823 37081 ft 457 kts 182°
2026-05-04 09:40 30.57548 31.29979 37087 ft 456 kts 182°
2026-05-04 09:40 30.51279 31.31132 37085 ft 456 kts 182°
2026-05-04 09:42 30.27342 31.35528 37098 ft 453 kts 182°
2026-05-04 09:43 30.21150 31.36662 37096 ft 453 kts 182°
2026-05-04 09:43 30.14929 31.37800 37098 ft 452 kts 182°
2026-05-04 09:44 30.08756 31.39731 37104 ft 474 kts 166°
2026-05-04 09:44 30.05817 31.41561 37087 ft 488 kts 155°
2026-05-04 09:46 29.86621 31.58146 37095 ft 491 kts 153°
2026-05-04 09:46 29.81158 31.62792 37101 ft 490 kts 153°
2026-05-04 09:47 29.75669 31.67448 37108 ft 490 kts 154°
2026-05-04 09:49 29.53777 31.85979 37108 ft 488 kts 154°
2026-05-04 09:51 29.34639 32.02094 37131 ft 488 kts 154°
2026-05-04 09:51 29.29159 32.06695 37115 ft 489 kts 154°
2026-05-04 09:52 29.23668 32.11299 37111 ft 489 kts 154°
2026-05-04 09:52 29.18173 32.15900 37122 ft 489 kts 154°
2026-05-04 09:53 29.12671 32.20501 37111 ft 490 kts 154°
2026-05-04 09:53 29.07206 32.25066 37105 ft 489 kts 154°
2026-05-04 09:54 29.01706 32.29654 37111 ft 489 kts 154°
2026-05-04 09:54 28.96211 32.34230 37109 ft 489 kts 154°
2026-05-04 09:55 28.90713 32.38802 37110 ft 488 kts 154°
2026-05-04 09:55 28.85208 32.43374 37107 ft 489 kts 154°
2026-05-04 09:56 28.79750 32.47902 37118 ft 488 kts 154°
2026-05-04 09:56 28.74255 32.52455 37107 ft 488 kts 154°
2026-05-04 09:57 28.68765 32.56997 37124 ft 487 kts 154°
2026-05-04 09:57 28.63271 32.61535 37107 ft 487 kts 154°
2026-05-04 09:58 28.57785 32.66062 37104 ft 487 kts 154°
2026-05-04 09:58 28.52283 32.70593 36909 ft 492 kts 154°
2026-05-04 10:00 28.32983 32.86454 34737 ft 487 kts 153°
2026-05-04 10:00 28.30239 32.88703 34139 ft 485 kts 153°
2026-05-04 10:02 28.10976 33.04439 28685 ft 498 kts 151°
2026-05-04 10:04 27.92071 33.19828 24603 ft 469 kts 150°
2026-05-04 10:04 27.89432 33.21973 24010 ft 464 kts 150°
2026-05-04 10:04 27.86826 33.24089 23376 ft 460 kts 150°
2026-05-04 10:04 27.84240 33.26188 22730 ft 454 kts 150°
2026-05-04 10:05 27.81691 33.28255 22141 ft 448 kts 150°
2026-05-04 10:05 27.79200 33.30273 21568 ft 443 kts 150°
2026-05-04 10:05 27.76708 33.32291 21000 ft 437 kts 150°
2026-05-04 10:05 27.74245 33.34281 20448 ft 434 kts 150°
2026-05-04 10:06 27.71804 33.36254 19896 ft 429 kts 150°
2026-05-04 10:06 27.69388 33.38204 19339 ft 427 kts 150°
2026-05-04 10:06 27.66971 33.40154 18775 ft 427 kts 150°
2026-05-04 10:08 27.52900 33.51497 15412 ft 400 kts 150°
2026-05-04 10:08 27.50612 33.53165 14889 ft 392 kts 158°
2026-05-04 10:08 27.48144 33.54438 14397 ft 386 kts 164°
2026-05-04 10:08 27.45645 33.55549 13845 ft 384 kts 165°
2026-05-04 10:09 27.43169 33.56648 13282 ft 379 kts 164°
2026-05-04 10:09 27.40750 33.57773 12746 ft 372 kts 163°
2026-05-04 10:09 27.38406 33.58899 12277 ft 371 kts 162°
2026-05-04 10:09 27.36027 33.60052 11745 ft 372 kts 162°
2026-05-04 10:10 27.33613 33.61058 11238 ft 366 kts 169°
2026-05-04 10:10 27.31187 33.61774 10961 ft 353 kts 172°
2026-05-04 10:10 27.28846 33.62397 10815 ft 339 kts 172°
2026-05-04 10:10 27.26576 33.63010 10664 ft 332 kts 172°
2026-05-04 10:11 27.24374 33.63635 10518 ft 320 kts 172°
2026-05-04 10:11 27.22261 33.64256 10385 ft 308 kts 172°
2026-05-04 10:11 27.20227 33.64860 10256 ft 296 kts 172°
2026-05-04 10:11 27.18291 33.65436 10136 ft 287 kts 172°
2026-05-04 10:12 27.16357 33.66010 10028 ft 281 kts 172°
2026-05-04 10:12 27.14491 33.66562 9766 ft 280 kts 172°
2026-05-04 10:12 27.12622 33.67115 9484 ft 275 kts 172°
2026-05-04 10:12 27.10782 33.67660 9206 ft 272 kts 172°
2026-05-04 10:13 27.08952 33.68200 8933 ft 273 kts 172°
2026-05-04 10:13 27.07102 33.68744 8648 ft 276 kts 172°
2026-05-04 10:13 27.05252 33.69291 8364 ft 273 kts 172°
2026-05-04 10:13 27.03422 33.69833 8072 ft 270 kts 172°
2026-05-04 10:14 27.01617 33.70369 7810 ft 268 kts 172°
2026-05-04 10:14 26.99804 33.70904 7524 ft 271 kts 171°
2026-05-04 10:16 26.88126 33.76354 5648 ft 272 kts 112°
2026-05-04 10:16 26.87754 33.78440 5415 ft 268 kts 96°
2026-05-04 10:16 26.87583 33.80491 5033 ft 271 kts 95°
2026-05-04 10:16 26.87398 33.82611 4552 ft 275 kts 94°
2026-05-04 10:17 26.87540 33.84746 4162 ft 275 kts 69°
2026-05-04 10:17 26.88543 33.86459 3945 ft 257 kts 33°
2026-05-04 10:19 26.98968 33.85710 3089 ft 202 kts 342°
2026-05-04 10:19 27.00281 33.85321 3031 ft 189 kts 342°
2026-05-04 10:19 27.01541 33.84944 2922 ft 186 kts 342°
2026-05-04 10:19 27.02812 33.84565 2714 ft 191 kts 341°
2026-05-04 10:20 27.04091 33.84186 2471 ft 193 kts 342°
2026-05-04 10:20 27.05355 33.83809 2214 ft 181 kts 343°
2026-05-04 10:20 27.06534 33.83457 1990 ft 169 kts 344°
2026-05-04 10:20 27.07623 33.83137 1764 ft 155 kts 344°
2026-05-04 10:21 27.08633 33.82832 1591 ft 148 kts 344°
2026-05-04 10:21 27.09640 33.82532 1364 ft 150 kts 343°
2026-05-04 10:21 27.10647 33.82225 1210 ft 150 kts 346°
2026-05-04 10:21 27.11659 33.81935 970 ft 149 kts 345°
2026-05-04 10:22 27.13611 33.81355 584 ft 140 kts 345°
2026-05-04 10:22 27.14557 33.81080 394 ft 141 kts 345°
2026-05-04 10:22 27.15511 33.80792 245 ft 144 kts 346°
2026-05-04 10:23 27.16479 33.80503 52 ft 141 kts 346°
2026-05-04 10:23 27.17340 33.80251 50 ft 110 kts 346°
2026-05-04 10:25 27.18471 33.80047 49 ft 0 kts 75°
2026-05-04 10:25 27.18472 33.80050 48 ft 2 kts 75°
2026-05-04 10:25 27.18438 33.80097 49 ft 13 kts 156°
2026-05-04 10:26 27.18322 33.80134 48 ft 22 kts 162°
2026-05-04 10:26 27.18185 33.80187 52 ft 17 kts 132°
2026-05-04 10:26 27.18197 33.80316 51 ft 17 kts 73°
2026-05-04 10:26 27.18171 33.80424 53 ft 16 kts 159°
2026-05-04 10:27 27.18086 33.80463 55 ft 10 kts 120°
2026-05-04 10:27 27.18095 33.80536 55 ft 5 kts 75°
2026-05-04 10:27 27.18099 33.80552 53 ft 0 kts 75°